Location: Aulagny
(45.1643°N, 4.3096°E)
Time: 07:28:03
(UTC+00:00)

ASTEX 1 - Pass Details

Date: 21 October 2019
Orbit: 722 x 742 km, 92.7° (Epoch: 14 November)

Event Time Altitude Azimuth Distance (km) Brightness Sun altitude
Rises 18:03:21 0° 2° (N) 3,169 6.7 -13.9°
Reaches altitude 10° 18:05:39 10° 359° (N) 2,246 5.9 -14.3°
Maximum altitude 18:10:33 62° 280° (W) 827 3.9 -15.2°
Drops below altitude 10° 18:15:27 10° 200° (SSW) 2,241 6.2 -16.1°
Sets 18:17:45 0° 197° (SSW) 3,162 6.9 -16.5°
